Weather History for KPDT - March, 2013

Change the Weather History Date:

Tuesday, March 26, 2013

  Actual Average Record
Temperature  
Mean Temperature 50 °F 48 °F  
Max Temperature 60 °F 58 °F 73 °F (1946)
Min Temperature 40 °F 37 °F 21 °F (1913)
Degree Days  
Heating Degree Days 15 18  
Month to date heating degree days 534 532  
Since 1 July heating degree days 4267 4431  
Cooling Degree Days 0 0  
Month to date cooling degree days 0 0  
Year to date cooling degree days 0 0  
Moisture  
Dew Point 32 °F    
Average Humidity 51    
Maximum Humidity 70    
Minimum Humidity 32    
Precipitation  
Precipitation T in 0.04 in 0.37 in (1903)
Month to date precipitation 0.43 1.13  
Year to date precipitation 1.80 3.67  
Snow  
Snow 0.00 in 0.10 in 1.30 in (1965)
Month to date snowfall 0.1 0.7  
Year to date snowfall 0.2 7.7  
Since 1 July snowfall 2.0 15.2  
Snow Depth 0.00 in    
Sea Level Pressure  
Sea Level Pressure 29.95 in    
Wind  
Wind Speed 4 mph (ENE)    
Max Wind Speed 14 mph    
Max Gust Speed 16 mph    
Visibility 10 miles    
Events Rain    
T = Trace of Precipitation, MM = Missing Value Source: NWS Daily Summary

Daily Weather History Graph

Daily Weather History Graph

Search for Another Location

Airport or City:

Trip Planner

Search our weather history database for the weather conditions in past years. The results will help you decide how hot, cold, wet, or windy it might be!

Date:

Astronomy

Mar. 26, 2013 Rise Set
Actual Time 6:46 AM PDT 7:16 PM PDT
Civil Twilight 6:16 AM PDT 7:46 PM PDT
Nautical Twilight 5:41 AM PDT 8:21 PM PDT
Astronomical Twilight 5:04 AM PDT 8:58 PM PDT
Moon 6:59 PM PDT (3/26) 6:06 AM PDT (3/26)
Length of Visible Light 13h 29m
Length of Day
12h 30m
Full, 100% of the Moon is Illuminated
Mar 26
Full
Mar 27
Full
Apr 2
Last Quarter
Apr 10
New
Apr 18
First Quarter

Hourly Weather History & Observations

Time (PDT) Temp. Windchill Dew Point Humidity Pressure Visibility Wind Dir Wind Speed Gust Speed Precip Events Conditions
12:53 AM 45.0 °F - 28.0 °F 52% 29.94 in 10.0 mi Calm Calm - N/A   Overcast
1:53 AM 43.0 °F 41.3 °F 30.0 °F 60% 29.95 in 10.0 mi South 3.5 mph - N/A   Overcast
2:53 AM 42.1 °F 39.2 °F 32.0 °F 67% 29.95 in 10.0 mi SSE 4.6 mph - N/A   Overcast
3:53 AM 41.0 °F 39.0 °F 32.0 °F 70% 29.94 in 10.0 mi SSE 3.5 mph - N/A   Overcast
4:53 AM 43.0 °F - 30.9 °F 62% 29.95 in 10.0 mi Calm Calm - N/A   Overcast
5:53 AM 41.0 °F 38.0 °F 32.0 °F 70% 29.95 in 10.0 mi SE 4.6 mph - N/A   Overcast
6:53 AM 41.0 °F 38.0 °F 32.0 °F 70% 29.96 in 10.0 mi SSE 4.6 mph - N/A   Overcast
7:53 AM 42.1 °F 40.2 °F 33.1 °F 70% 29.97 in 10.0 mi SE 3.5 mph - N/A   Overcast
8:53 AM 44.1 °F - 32.0 °F 63% 29.98 in 10.0 mi Calm Calm - N/A   Overcast
9:53 AM 46.9 °F - 30.0 °F 52% 29.99 in 10.0 mi NW 3.5 mph - N/A   Overcast
10:53 AM 51.1 °F - 28.0 °F 41% 29.99 in 10.0 mi Calm Calm - N/A   Overcast
11:53 AM 53.1 °F - 28.9 °F 40% 29.98 in 10.0 mi Calm Calm - N/A   Scattered Clouds
12:53 PM 55.9 °F - 30.0 °F 37% 29.96 in 10.0 mi NNW 5.8 mph - N/A   Clear
1:53 PM 57.9 °F - 30.0 °F 35% 29.95 in 10.0 mi Variable 4.6 mph - N/A   Mostly Cloudy
2:53 PM 57.0 °F - 30.0 °F 36% 29.94 in 10.0 mi NNW 8.1 mph - N/A   Mostly Cloudy
3:53 PM 60.1 °F - 30.9 °F 33% 29.92 in 10.0 mi Variable 3.5 mph - N/A   Partly Cloudy
4:53 PM 57.0 °F - 30.9 °F 37% 29.92 in 10.0 mi NE 8.1 mph - N/A   Overcast
5:53 PM 55.9 °F - 30.9 °F 39% 29.92 in 10.0 mi North 10.4 mph - N/A   Overcast
6:53 PM 54.0 °F - 32.0 °F 43% 29.92 in 10.0 mi NNE 8.1 mph - N/A   Overcast
7:53 PM 52.0 °F - 33.1 °F 49% 29.92 in 10.0 mi NE 5.8 mph - N/A   Overcast
8:53 PM 50.0 °F - 35.1 °F 57% 29.93 in 10.0 mi NE 6.9 mph - 0.00 in Rain Light Rain
9:53 PM 48.9 °F - 39.0 °F 69% 29.94 in 10.0 mi Calm Calm - 0.00 in Rain Light Rain
10:53 PM 46.9 °F - 39.0 °F 74% 29.93 in 10.0 mi NNE 4.6 mph - 0.00 in   Overcast
11:53 PM 46.0 °F 43.9 °F 39.9 °F 79% 29.91 in 10.0 mi Variable 4.6 mph - 0.00 in Rain Light Rain